Latest Weather Observations for Wulungurru (Kintore)

IDD60801

Issued at 5:05 pm CST Saturday 25 October 2014 (issued every 30 minutes, with the page automatically refreshed every 10 minutes)

About weather observations | Map of weather stations | Latest weather observations for NT | Other Formats
Station Details ID: 015664 Name: WALUNGURRU AIRPORT Lat: -23.27 Lon: 129.38 Height: 454.3 m
Data from the previous 72 hours. | See also: Recent months at Wulungurru (Kintore)
Date/Time
CST
Temp
°C
App
Temp
°C
Dew
Point
Rel
Hum
%
Delta-T
°C
Wind Press
QNH
hPa
Press
MSL
hPa
Rain
since 9 am
mm
Dir
 
Spd
km/h
Gust
km/h
Spd
kts
Gust
kts
25/05:00pm 39.4 34.4 -0.9 8 20.6 E 15 19 8 10 1013.5 - 0.0
25/04:30pm 39.6 36.2 -0.8 8 20.7 ENE 7 13 4 7 1013.5 - 0.0
25/04:00pm 39.1 35.5 0.5 9 20.1 E 9 15 5 8 1013.5 - 0.0
25/03:30pm 40.1 34.7 1.2 9 20.6 ENE 19 35 10 19 1013.8 - 0.0
25/03:00pm 38.3 34.2 -0.1 9 19.7 NNE 11 24 6 13 1014.3 1012.0 0.0
25/02:30pm 39.6 34.5 0.9 9 20.3 ENE 17 24 9 13 1014.7 - 0.0
25/02:00pm 38.6 33.8 0.1 9 19.9 NNE 15 28 8 15 1015.0 - 0.0
25/01:30pm 37.9 33.6 1.0 10 19.2 N 13 32 7 17 1015.3 - 0.0
25/01:00pm 38.1 31.4 1.2 10 19.3 NNE 26 35 14 19 1016.0 - 0.0
25/12:30pm 38.3 32.7 1.3 10 19.4 NNE 20 33 11 18 1016.6 - 0.0
25/12:00pm 38.2 32.8 1.3 10 19.3 N 19 30 10 16 1017.0 1014.7 0.0
25/11:30am 38.2 32.2 1.3 10 19.3 N 22 30 12 16 1017.5 - 0.0
25/11:00am 37.4 31.2 2.0 11 18.7 N 24 35 13 19 1017.8 - 0.0
25/10:30am 36.4 29.9 2.4 12 17.9 N 26 33 14 18 1018.0 - 0.0
25/10:00am 35.3 28.8 2.7 13 17.2 N 26 33 14 18 1018.4 - 0.0
25/09:30am 34.6 29.0 3.2 14 16.6 N 22 28 12 15 1018.4 - 0.0
25/09:00am 32.9 27.8 2.9 15 15.6 NNE 19 26 10 14 1018.5 1016.3 0.0
25/08:30am 31.3 26.3 3.4 17 14.5 NE 19 24 10 13 1018.5 - 0.0
25/08:00am 29.3 24.2 3.3 19 13.4 ENE 19 24 10 13 1018.3 - 0.0
25/07:30am 28.4 23.1 1.8 18 13.2 ENE 19 26 10 14 1018.0 - 0.0
25/07:00am 28.1 23.2 2.3 19 12.9 ENE 17 22 9 12 1017.7 - 0.0
25/06:30am 27.1 22.2 2.2 20 12.4 E 17 20 9 11 1017.2 - 0.0
25/06:00am 26.6 22.4 1.8 20 12.2 E 13 15 7 8 1016.9 1014.6 0.0
25/05:30am 26.7 22.2 1.9 20 12.2 E 15 17 8 9 1016.6 - 0.0
25/05:00am 24.6 20.3 0.8 21 11.3 NE 13 17 7 9 1016.1 - 0.0
25/04:30am 25.9 20.8 0.5 19 12.1 SSE 17 20 9 11 1015.4 - 0.0
25/04:00am 25.6 20.0 1.0 20 11.8 SSE 20 22 11 12 1015.1 - 0.0
25/03:30am 27.0 23.0 0.7 18 12.7 ENE 11 15 6 8 1014.7 - 0.0
25/03:00am 26.2 22.1 0.0 18 12.4 NE 11 17 6 9 1014.6 1012.3 0.0
25/02:30am 26.6 22.2 0.4 18 12.6 ENE 13 15 7 8 1014.7 - 0.0
25/02:00am 26.3 21.9 0.1 18 12.5 NE 13 15 7 8 1014.8 - 0.0
25/01:30am 26.8 22.7 -0.3 17 12.9 NE 11 13 6 7 1015.0 - 0.0
25/01:00am 26.4 22.4 0.2 18 12.5 NE 11 13 6 7 1015.2 - 0.0
25/12:30am 27.0 22.8 -0.9 16 13.1 NE 11 13 6 7 1015.3 - 0.0
25/12:00am 28.3 23.7 -0.8 15 13.8 ENE 13 15 7 8 1015.5 1013.3 0.0
 
Date/Time
CST
Temp
°C
App
Temp
°C
Dew
Point
Rel
Hum
%
Delta-T
°C
Wind Press
QNH
hPa
Press
MSL
hPa
Rain
since 9 am
mm
Dir
 
Spd
km/h
Gust
km/h
Spd
kts
Gust
kts
24/11:30pm 28.9 24.3 -1.2 14 14.3 NNE 13 15 7 8 1015.6 - 0.0
24/11:00pm 29.6 25.3 -1.7 13 14.8 NE 11 15 6 8 1015.7 - 0.0
24/10:30pm 28.8 24.3 -0.4 15 14.0 ENE 13 17 7 9 1015.6 - 0.0
24/10:00pm 28.0 24.8 0.7 17 13.3 E 7 9 4 5 1015.4 - 0.0
24/09:30pm 28.6 26.4 1.2 17 13.5 ENE 2 9 1 5 1015.2 - 0.0
24/09:00pm 28.8 25.8 0.5 16 13.8 ENE 6 7 3 4 1015.0 1012.7 0.0
24/08:30pm 30.0 26.8 0.6 15 14.5 NE 7 9 4 5 1014.7 - 0.0
24/08:00pm 31.6 28.5 -0.1 13 15.6 N 6 7 3 4 1014.4 - 0.0
24/07:30pm 34.1 30.0 -0.5 11 17.2 N 11 15 6 8 1014.0 - 0.0
24/07:00pm 35.5 31.9 -2.2 9 18.4 N 7 11 4 6 1013.6 - 0.0
24/06:30pm 36.9 33.1 -1.1 9 19.0 N 9 11 5 6 1013.3 - 0.0
24/06:00pm 37.5 33.3 -0.7 9 19.3 NE 11 15 6 8 1013.0 1010.7 0.0
24/05:30pm 38.5 35.0 -1.6 8 20.1 ENE 7 19 4 10 1012.8 - 0.0
24/05:00pm 39.0 35.1 -1.2 8 20.4 ENE 9 17 5 9 1012.9 - 0.0
24/04:30pm 39.5 33.6 -0.8 8 20.6 NE 20 30 11 16 1012.9 - 0.0
24/04:00pm 39.6 35.7 0.9 9 20.3 WNW 11 17 6 9 1013.1 - 0.0
24/03:30pm 38.8 34.0 0.3 9 19.9 ENE 15 24 8 13 1013.3 - 0.0
24/03:00pm 39.3 35.3 0.6 9 20.2 N 11 32 6 17 1013.4 1011.2 0.0
24/02:30pm 39.8 33.9 -0.6 8 20.8 NNE 20 26 11 14 1013.8 - 0.0
24/02:00pm 38.8 34.8 0.3 9 19.9 WNW 11 20 6 11 1014.3 - 0.0
24/01:30pm 38.6 34.8 1.6 10 19.5 ESE 11 28 6 15 1014.8 - 0.0
24/01:00pm 38.4 34.5 1.4 10 19.4 NNE 11 24 6 13 1015.2 - 0.0
24/12:30pm 38.0 33.3 1.1 10 19.3 NNW 15 26 8 14 1015.5 - 0.0
24/12:00pm 37.4 32.3 0.7 10 19.0 N 17 26 9 14 1016.1 1013.9 0.0
24/11:30am 36.9 32.5 0.3 10 18.7 N 13 20 7 11 1016.6 - 0.0
24/11:00am 36.1 32.2 1.0 11 18.1 NNE 11 24 6 13 1016.9 - 0.0
24/10:30am 36.4 31.9 -0.1 10 18.5 ENE 13 20 7 11 1017.0 - 0.0
24/10:00am 35.6 31.0 -0.7 10 18.2 NE 13 19 7 10 1017.1 - 0.0
24/09:30am 34.3 29.0 -0.4 11 17.3 ENE 17 20 9 11 1017.2 - 0.0
24/09:00am 33.0 27.5 0.9 13 16.2 E 19 22 10 12 1017.1 1014.8 0.0
24/08:30am 31.8 27.3 2.0 15 15.2 E 15 22 8 12 1017.0 - 0.0
24/08:00am 29.7 25.0 2.9 18 13.7 SSE 17 24 9 13 1016.8 - 0.0
24/07:30am 29.0 23.6 2.3 18 13.5 SSE 20 24 11 13 1016.6 - 0.0
24/07:00am 27.0 22.1 2.1 20 12.4 SSE 17 20 9 11 1016.6 - 0.0
24/06:30am 26.0 21.0 1.3 20 12.0 SSE 17 19 9 10 1016.3 - 0.0
24/06:00am 26.7 21.3 1.2 19 12.4 SSE 19 22 10 12 1016.0 1013.8 0.0
24/05:30am 26.1 21.4 0.7 19 12.2 SSE 15 17 8 9 1015.5 - 0.0
24/05:00am 25.1 21.2 1.3 21 11.5 S 11 15 6 8 1015.2 - 0.0
24/04:30am 25.3 22.8 1.4 21 11.6 SSE 4 9 2 5 1014.9 - 0.0
24/04:00am 26.8 23.2 0.5 18 12.7 E 9 13 5 7 1014.2 - 0.0
24/03:30am 27.7 23.3 0.5 17 13.2 ENE 13 17 7 9 1013.9 - 0.0
24/03:00am 28.0 23.2 -0.1 16 13.5 ENE 15 17 8 9 1013.9 1011.7 0.0
24/02:30am 27.8 22.9 -0.3 16 13.4 ENE 15 17 8 9 1014.2 - 0.0
24/02:00am 28.6 23.7 -0.5 15 13.9 ENE 15 19 8 10 1014.3 - 0.0
24/01:30am 28.2 23.2 -0.9 15 13.8 ENE 15 17 8 9 1014.6 - 0.0
24/01:00am 28.6 24.1 -0.5 15 13.9 ENE 13 17 7 9 1014.8 - 0.0
24/12:30am 27.4 23.0 0.2 17 13.1 ENE 13 15 7 8 1014.9 - 0.0
24/12:00am 26.7 23.1 0.4 18 12.6 E 9 11 5 6 1015.1 1012.8 0.0
 
Date/Time
CST
Temp
°C
App
Temp
°C
Dew
Point
Rel
Hum
%
Delta-T
°C
Wind Press
QNH
hPa
Press
MSL
hPa
Rain
since 9 am
mm
Dir
 
Spd
km/h
Gust
km/h
Spd
kts
Gust
kts
23/11:30pm 27.2 23.9 0.1 17 13.0 E 7 9 4 5 1015.4 - 0.0
23/11:00pm 27.7 24.5 0.5 17 13.2 E 7 9 4 5 1015.7 - 0.0
23/10:30pm 28.3 24.5 -0.8 15 13.8 E 9 11 5 6 1015.7 - 0.0
23/10:00pm 29.1 24.9 -1.1 14 14.4 E 11 13 6 7 1015.7 - 0.0
23/09:30pm 29.3 25.1 -0.9 14 14.4 E 11 13 6 7 1015.6 - 0.0
23/09:00pm 29.4 25.2 -0.9 14 14.5 E 11 13 6 7 1015.4 1013.2 0.0
23/08:30pm 30.5 26.3 -1.0 13 15.2 ENE 11 13 6 7 1015.2 - 0.0
23/08:00pm 31.5 27.8 -0.2 13 15.6 ENE 9 13 5 7 1014.7 - 0.0
23/07:30pm 31.8 27.6 -1.1 12 15.9 NE 11 13 6 7 1014.4 - 0.0
23/07:00pm 33.8 29.5 -2.0 10 17.3 NE 11 15 6 8 1014.0 - 0.0
23/06:30pm 35.4 31.0 -2.3 9 18.4 NNE 11 15 6 8 1013.8 - 0.0
23/06:00pm 36.5 31.3 -3.0 8 19.2 NNE 15 19 8 10 1013.5 1011.3 0.0
23/05:30pm 37.0 32.6 -2.7 8 19.4 NE 11 17 6 9 1013.4 - 0.0
23/05:00pm 37.5 31.6 -2.3 8 19.6 NE 19 28 10 15 1013.3 - 0.0
23/04:30pm 37.7 31.6 -2.2 8 19.8 NE 20 33 11 18 1013.2 - 0.0
23/04:00pm 37.9 31.1 -2.0 8 19.8 NE 24 33 13 18 1013.1 - 0.0
23/03:30pm 38.5 32.1 -1.6 8 20.1 NNE 22 32 12 17 1013.1 - 0.0
23/03:00pm 37.8 31.7 -2.1 8 19.8 NNE 20 35 11 19 1013.4 1011.2 0.0
23/02:30pm 38.8 32.4 -1.4 8 20.3 NE 22 37 12 20 1013.6 - 0.0
23/02:00pm 39.0 32.7 -1.2 8 20.4 NE 22 32 12 17 1013.8 - 0.0
23/01:30pm 39.3 33.4 -1.0 8 20.5 N 20 32 11 17 1014.3 - 0.0
23/01:00pm 37.4 30.4 -0.8 9 19.3 N 26 41 14 22 1014.6 - 0.0
23/12:30pm 38.4 31.3 -1.6 8 20.1 N 26 35 14 19 1015.0 - 0.0
23/12:00pm 37.7 30.7 -0.6 9 19.4 N 26 44 14 24 1015.2 1012.9 0.0
23/11:30am 38.0 30.7 -0.3 9 19.6 N 28 41 15 22 1015.5 - 0.0
23/11:00am 37.9 29.8 -0.4 9 19.5 NNE 32 48 17 26 1015.8 - 0.0
23/10:51am 37.5 30.1 -0.7 9 19.3 N 28 48 15 26 1015.9 - 0.0
23/10:00am 35.0 26.8 0.2 11 17.6 NNE 33 43 18 23 1016.1 - 0.0
23/09:30am 33.7 26.1 0.4 12 16.8 NNE 30 43 16 23 1016.2 - 0.0
23/09:00am 32.4 25.2 0.5 13 15.9 NE 28 37 15 20 1016.3 1014.1 0.0
23/08:30am 29.9 23.8 0.5 15 14.5 NE 22 33 12 18 1016.1 - 0.0
23/08:00am 27.8 22.0 -0.3 16 13.4 ENE 20 28 11 15 1016.0 - 0.0
23/07:30am 26.5 20.6 -0.5 17 12.7 ENE 20 26 11 14 1015.9 - 0.0
23/07:00am 25.3 18.9 -1.5 17 12.3 ENE 22 30 12 16 1015.5 - 0.0
23/06:30am 25.7 19.9 -1.2 17 12.5 E 19 24 10 13 1015.1 - 0.0
23/06:00am 25.2 20.1 -1.6 17 12.3 ENE 15 19 8 10 1014.7 1012.4 0.0
23/05:30am 23.1 18.5 -1.1 20 11.0 ENE 13 17 7 9 1014.4 - 0.0
23/05:00am 23.9 20.1 -1.1 19 11.4 NE 9 13 5 7 1014.2 - 0.0
23/04:30am 25.0 20.4 -0.9 18 12.0 ENE 13 15 7 8 1013.8 - 0.0
23/04:00am 24.3 19.4 -0.8 19 11.6 NE 15 19 8 10 1013.6 - 0.0
23/03:30am 23.0 19.2 -1.1 20 10.9 ENE 9 11 5 6 1013.3 - 0.0
23/03:00am 24.1 20.4 -0.2 20 11.3 ENE 9 11 5 6 1013.5 1011.3 0.0
23/02:30am 24.6 20.8 -0.5 19 11.7 ENE 9 11 5 6 1013.6 - 0.0
23/02:00am 25.4 21.2 -0.6 18 12.1 NE 11 15 6 8 1013.8 - 0.0
23/01:30am 24.4 21.0 -0.7 19 11.6 E 7 9 4 5 1014.2 - 0.0
23/01:00am 25.0 20.9 -0.2 19 11.8 E 11 13 6 7 1014.5 - 0.0
23/12:30am 24.3 21.0 -1.5 18 11.7 SW 6 9 3 5 1015.0 - 0.0
23/12:00am 27.8 23.8 -2.1 14 13.8 NW 9 17 5 9 1015.2 1012.9 0.0
 
Date/Time
CST
Temp
°C
App
Temp
°C
Dew
Point
Rel
Hum
%
Delta-T
°C
Wind Press
QNH
hPa
Press
MSL
hPa
Rain
since 9 am
mm
Dir
 
Spd
km/h
Gust
km/h
Spd
kts
Gust
kts
22/11:30pm 29.4 24.6 -2.9 12 14.9 ENE 13 15 7 8 1015.4 - 0.0
22/11:00pm 28.7 23.9 -2.4 13 14.4 ENE 13 17 7 9 1015.5 - 0.0
22/10:30pm 30.8 25.7 -1.9 12 15.5 ENE 15 17 8 9 1015.6 - 0.0
22/10:00pm 31.3 26.9 -2.6 11 16.0 ENE 11 13 6 7 1015.5 - 0.0
22/09:30pm 31.5 27.2 -1.3 12 15.8 E 11 13 6 7 1015.4 - 0.0
22/09:00pm 31.5 27.8 -0.2 13 15.6 NE 9 11 5 6 1015.2 1012.9 0.0
22/08:30pm 31.7 28.0 -0.1 13 15.7 N 9 11 5 6 1014.9 - 0.0
22/08:00pm 33.1 29.2 -1.3 11 16.8 N 9 11 5 6 1014.7 - 0.0
22/07:30pm 33.9 30.3 -2.0 10 17.4 N 7 9 4 5 1014.3 - 0.0
22/07:00pm 35.8 31.6 -3.5 8 18.8 NE 9 9 5 5 1013.9 - 0.0
22/06:30pm 37.3 32.9 -2.4 8 19.5 NE 11 13 6 7 1013.7 - 0.0
22/06:00pm 38.1 32.8 -3.7 7 20.3 NE 15 20 8 11 1013.4 1011.2 0.0
22/05:30pm 39.2 35.1 -2.9 7 20.8 ESE 9 15 5 8 1013.3 - 0.0

Other Formats:

Comma delimited format used in spreadsheet applications
http://www.bom.gov.au/fwo/IDD60801/IDD60801.94321.axf

JavaScript Object Notation format (JSON) in row-major order
http://www.bom.gov.au/fwo/IDD60801/IDD60801.94321.json